Location: Bovenkerk
(52.2915°N, 4.8336°E)
Time: 22:11:13
(UTC+00:00)

Cosmos 2322 Rocket - Pass Details

Date: 09 April 2020
Orbit: 834 x 849 km, 71.0° (Epoch: 23 May)

Event Time Altitude Azimuth Distance (km) Brightness Sun altitude
Rises 19:49:09 0° 323° (NW) 3,412 6.7 -12.1°
Reaches altitude 10° 19:52:53 10° 347° (NNW) 2,471 5.3 -12.6°
Maximum altitude 19:55:54 14° 20° (NNE) 2,165 4.5 -13.0°
Drops below altitude 10° 19:58:55 10° 53° (NE) 2,463 4.4 -13.3°
Enters shadow 20:01:26 - 71° (ENE) 3,055 4.7 -13.7°
